TimeCST,TemperatureF,Dew PointF,Humidity,Sea Level PressureIn,VisibilityMPH,Wind Direction,Wind SpeedMPH,Gust SpeedMPH,PrecipitationIn,Events,Conditions,WindDirDegrees,DateUTC
1:53 AM,42.1,33.1,70,29.81,10.0,North,3.5,-,N/A,,Overcast,10,2013-03-05 07:53:00
2:53 AM,41.0,33.1,73,29.80,10.0,North,4.6,-,N/A,,Overcast,360,2013-03-05 08:53:00
3:18 AM,39.2,32.0,75,29.79,10.0,NNE,4.6,-,N/A,,Mostly Cloudy,20,2013-03-05 09:18:00
3:53 AM,39.9,33.1,77,29.81,10.0,Calm,Calm,-,N/A,,Overcast,0,2013-03-05 09:53:00
4:53 AM,39.9,33.1,77,29.83,10.0,WNW,3.5,-,N/A,,Overcast,300,2013-03-05 10:53:00
5:53 AM,39.9,32.0,73,29.85,10.0,WNW,15.0,-,N/A,,Overcast,300,2013-03-05 11:53:00
6:05 AM,39.2,32.0,75,29.85,10.0,NW,16.1,23.0,N/A,,Overcast,310,2013-03-05 12:05:00
7:53 AM,35.1,30.9,85,29.88,6.0,WNW,17.3,24.2,0.00,Rain,Rain,300,2013-03-05 13:53:00
8:53 AM,34.0,30.9,89,29.92,2.0,WNW,13.8,-,0.01,Snow,Light Snow,290,2013-03-05 14:53:00
9:15 AM,33.8,30.2,87,29.92,0.8,NW,15.0,23.0,0.01,Snow,Light Snow,310,2013-03-05 15:15:00
9:23 AM,33.8,30.2,87,29.91,0.8,WNW,13.8,-,0.02,Snow,Light Snow,300,2013-03-05 15:23:00
9:53 AM,33.1,30.9,92,29.92,0.2,NW,15.0,19.6,0.05,Fog-Snow,Snow,320,2013-03-05 15:53:00
10:07 AM,33.8,30.2,87,29.92,0.5,NW,12.7,-,0.01,Fog-Snow,Snow,310,2013-03-05 16:07:00
10:49 AM,33.8,30.2,87,29.93,1.2,WNW,13.8,-,0.03,Snow,Light Snow,290,2013-03-05 16:49:00
10:53 AM,33.1,30.9,92,29.94,1.8,WNW,15.0,-,0.03,Snow,Light Snow,300,2013-03-05 16:53:00
11:11 AM,33.8,30.2,87,29.93,2.0,WNW,15.0,-,0.00,Snow,Light Snow,300,2013-03-05 17:11:00
11:19 AM,33.8,30.2,87,29.93,5.0,NW,23.0,28.8,0.00,,Overcast,310,2013-03-05 17:19:00
11:53 AM,35.1,30.9,85,29.94,8.0,WNW,23.0,32.2,0.00,,Overcast,300,2013-03-05 17:53:00
12:53 PM,35.1,27.0,72,29.95,10.0,WNW,20.7,31.1,N/A,,Overcast,300,2013-03-05 18:53:00
1:48 PM,35.6,26.6,70,29.95,10.0,WNW,23.0,33.4,N/A,,Overcast,300,2013-03-05 19:48:00
1:53 PM,37.0,26.1,65,29.96,10.0,WNW,20.7,28.8,N/A,,Overcast,300,2013-03-05 19:53:00
2:53 PM,36.0,21.0,55,29.99,10.0,WNW,25.3,41.4,N/A,,Overcast,300,2013-03-05 20:53:00
3:53 PM,34.0,21.0,59,30.02,10.0,WNW,23.0,38.0,N/A,,Overcast,300,2013-03-05 21:53:00
4:53 PM,34.0,21.9,61,30.03,10.0,WNW,25.3,33.4,N/A,,Overcast,290,2013-03-05 22:53:00
5:53 PM,33.1,24.1,70,30.04,7.0,WNW,19.6,27.6,0.00,Snow,Light Snow,290,2013-03-05 23:53:00
6:50 PM,32.0,24.8,75,30.04,9.0,WNW,19.6,27.6,0.00,,Overcast,290,2013-03-06 00:50:00
6:53 PM,32.0,25.0,75,30.05,10.0,WNW,18.4,27.6,0.00,,Overcast,290,2013-03-06 00:53:00
7:14 PM,33.8,24.8,70,30.05,10.0,WNW,19.6,31.1,N/A,,Overcast,290,2013-03-06 01:14:00
7:24 PM,33.8,24.8,70,30.05,10.0,WNW,23.0,35.7,N/A,,Overcast,300,2013-03-06 01:24:00
7:53 PM,32.0,25.0,75,30.07,7.0,WNW,17.3,28.8,0.00,Snow,Light Snow,300,2013-03-06 01:53:00
8:53 PM,33.1,24.1,70,30.08,10.0,WNW,19.6,25.3,0.00,,Overcast,300,2013-03-06 02:53:00
9:53 PM,34.0,24.1,67,30.10,10.0,WNW,23.0,33.4,N/A,,Overcast,300,2013-03-06 03:53:00
10:03 PM,33.8,24.8,70,30.10,8.0,NW,19.6,31.1,0.00,Snow,Light Snow,310,2013-03-06 04:03:00
10:24 PM,33.8,23.0,65,30.11,10.0,NW,21.9,33.4,0.00,,Overcast,320,2013-03-06 04:24:00
10:53 PM,33.1,25.0,72,30.12,8.0,WNW,19.6,36.8,0.00,,Overcast,300,2013-03-06 04:53:00
11:18 PM,33.8,24.8,70,30.12,10.0,NW,24.2,29.9,0.00,,Overcast,320,2013-03-06 05:18:00
11:53 PM,33.1,25.0,72,30.13,9.0,NW,18.4,-,0.00,,Overcast,310,2013-03-06 05:53:00